Terminal Aerodrome Forecast
Issued by NWS

Home | Current Version | Previous Version | Text Only | Print | Product List | Glossary On
Versions: 1 2 3 4 5 6 7 8 9 10 11 12 13 14 15
000
FTUS42 KTBW 211100
TAFPGD
TAF
KPGD 211131Z 2112/2212 VRB04KT P6SM VCSH SCT050 BKN070
     FM211700 23005KT P6SM VCTS SCT035CB BKN050
     FM212100 25007KT P6SM SCT035 BKN100
     FM220000 VRB03KT P6SM SCT100 BKN200=

USA.gov is the U.S. government's official web portal to all federal, state and local government web resources and services.